Location: Mount Tamalpais State Park
(37.9108°N, 122.6128°W)
Time: 11:53:05
(UTC-08:00)

Daily predictions for brighter satellites

Satellite Brightness Start Highest point End
(mag) Time Altitude Azimuth Time Altitude Azimuth Time Altitude Azimuth
CORIOLIS 4.4 17:17:10 10° SE 17:22:19 47° ENE 17:27:28 10° N
Cosmos 1048 Rocket 4.0 17:18:40 10° NNW 17:23:58 67° ENE 17:29:17 10° SSE
Cosmos 2341 Rocket 4.0 17:19:27 10° N 17:25:41 76° E 17:31:53 10° S
CZ-3B DEB 2.1 17:23:05 10° SSW 17:26:04 47° ESE 17:33:04 10° NE
Cosmos 158 Rocket 4.3 17:21:15 10° N 17:26:27 47° ENE 17:31:30 10° SE
Cosmos 2278 Rocket 3.4 17:23:03 10° SSE 17:27:14 22° E 17:31:26 10° NE
COSMOS 2406 3.4 17:21:55 10° NNW 17:27:31 53° ENE 17:33:06 10° SE
CZ-3A R/B 3.4 17:24:05 10° WSW 17:28:00 55° NNW 17:45:59 10° NE
Cosmos 1484 Rocket 4.0 17:27:52 10° ESE 17:30:41 20° ENE 17:33:29 10° NNE
CZ-2C R/B 2.4 17:29:50 10° SSE 17:34:42 69° ENE 17:39:44 10° N
SPOT 3 Rocket 3.5 17:31:55 10° SSE 17:37:06 76° ENE 17:42:17 10° N
Meteor 1-5 Rocket 4.1 17:33:03 10° N 17:38:25 65° E 17:43:56 10° SSE
Cosmos 1238 Rocket 3.0 17:38:41 10° SSE 17:41:21 29° E 17:43:57 10° NNE
PAYLOAD A 4.5 17:39:28 10° S 17:44:09 61° W 17:49:00 10° NNW
CRYOSAT 2 4.4 17:42:52 10° N 17:47:48 89° W 17:52:41 10° S
Okean 1 4.2 17:47:01 10° SSE 17:50:30 29° E 17:53:41 12° NNE
IDEFIX/ARIANE 42P 2.6 17:46:14 10° SSE 17:51:27 85° WSW 17:56:40 10° NNW
Cosmos 1536 3.7 17:48:03 10° NNW 17:52:01 54° W 17:55:59 10° S
COSMOS 2441 4.5 17:47:27 10° SSE 17:52:09 53° ENE 17:56:55 10° N
Cosmos 2082 Rocket 3.9 17:50:42 10° NNE 17:52:44 13° NE 17:52:44 13° NE
USA 32 4.0 17:50:15 10° S 17:55:27 82° E 18:00:42 10° N
Hubble Space Telescope 3.3 17:54:44 10° SW 17:57:21 16° SSW 17:59:57 10° SSE
COSMO-SKYMED 1 2.8 17:54:48 10° NNE 17:59:02 49° E 18:03:14 10° S
OPS 8737 4.5 17:57:37 10° SSW 18:01:00 53° ESE 18:02:34 25° NE
Cosmos 1544 Rocket 3.5 17:56:56 10° N 18:01:22 69° E 18:05:48 10° SSE
BREEZE-M R/B 4.5 17:49:45 10° SW 18:01:50 75° SE 18:05:51 20° ENE
Cosmos 1975 Rocket 4.1 17:58:09 10° SSW 18:02:17 46° W 18:06:27 10° N
Cosmos 1500 4.4 17:59:35 10° NNE 18:03:19 23° E 18:05:50 10° SE
Cosmos 864 Rocket 4.5 17:59:35 10° N 18:05:50 65° E 18:12:05 10° SSE
Meteor 1-28 Rocket 4.0 18:04:52 24° ENE 18:06:09 30° E 18:09:32 10° SSE
SMAP 3.9 18:02:38 10° S 18:07:10 53° W 18:11:44 10° NNW
SL-24 DEB 4.2 18:02:48 10° NNE 18:07:32 64° E 18:12:11 10° S
Meteor 1-18 Rocket 4.1 18:02:24 10° S 18:07:58 72° E 18:13:39 10° NNE
CZ-4 R/B 3.4 18:07:07 10° SSW 18:10:54 32° W 18:14:40 10° NNW
Cosmos 1346 Rocket 3.4 18:10:11 10° SSE 18:13:43 33° E 18:14:10 32° ENE
MSX 3.9 18:09:06 10° S 18:14:51 80° WSW 18:20:39 10° NNW
Cosmos 1812 2.7 18:14:38 10° S 18:18:29 83° W 18:22:22 10° N
Cosmos 1536 Rocket 3.5 18:14:16 10° S 18:18:42 77° E 18:23:11 10° N
NOAA 12 4.4 18:16:43 10° SE 18:21:41 43° ENE 18:26:39 10° N
YAOGAN 1 4.4 18:21:18 10° SSW 18:25:13 33° W 18:29:09 10° NNW
OTV 4 1.1 18:23:16 10° W 18:26:12 48° SSW 18:26:41 43° SSE
Cosmos 494 Rocket 3.9 18:22:32 10° NNW 18:27:47 71° ENE 18:33:01 10° SSE
Cosmos 1975 2.7 18:28:23 10° N 18:32:28 76° E 18:36:30 10° S
BREEZE M DEB (TANK) 4.3 18:30:00 10° NW 18:33:36 31° NNE 18:34:57 28° NE
Cosmos 2251 Rocket 3.5 18:29:56 10° NNW 18:35:19 84° WSW 18:40:37 10° SSE
NOSS 3-3 (A) 3.9 18:30:05 10° SSW 18:36:13 79° ESE 18:39:53 28° NE
NOSS 3-3 (C) 3.9 18:30:11 10° SSW 18:36:18 79° ESE 18:39:57 28° NE
SL-27 R/B 3.4 18:34:47 10° NNW 18:38:21 50° WSW 18:41:52 10° S
Meteor 1-12 Rocket 4.4 18:33:18 10° NNW 18:39:04 79° W 18:44:56 10° S
Okean 1-7 Rocket 4.2 18:35:32 10° SSE 18:38:57 39° SE 18:38:57 39° SE
ISS -1.4 18:41:25 10° W 18:44:05 22° NNW 18:44:12 22° NNW
Cosmos 1844 Rocket 4.1 18:40:16 10° SW 18:45:19 34° WNW 18:50:25 10° N
ATLAS 2AS CENTAUR R/B 3.0 18:39:04 10° NNW 18:47:10 87° WSW 18:54:38 10° SSE
Meteor 2-21 Rocket 4.3 18:41:45 10° N 18:47:55 65° E 18:54:02 10° SSE
GEOS 3 Rocket 3.9 18:45:51 10° SSE 18:50:56 67° WSW 18:56:02 10° NW
Cosmos 1455 Rocket 4.4 18:47:01 10° NNW 18:51:08 40° W 18:55:15 10° SSW
Cosmos 2297 3.7 18:47:39 10° S 18:53:09 57° ESE 18:53:32 56° E
Meteor 2-16 Rocket 4.4 18:48:20 10° N 18:54:21 59° E 19:00:19 10° SSE
SL-8 R/B 3.6 18:49:49 10° WSW 18:54:35 79° NW 18:55:03 70° NNE
SL-24 R/B - RUBIN 2 4.4 18:49:08 10° SSW 18:55:12 63° ESE 18:56:35 51° ENE
Timation 2 Rocket 4.3 18:51:19 10° NNW 18:57:56 50° ENE 18:58:19 50° ENE
Cosmos 1535 Rocket 4.5 18:52:46 10° N 18:58:59 56° E 19:05:05 10° SSE
Meteor 1-19 Rocket 4.1 18:53:28 10° S 18:59:09 68° E 19:00:14 56° NE
BREEZE M DEB (TANK) 2.7 18:53:16 10° WSW 19:01:02 67° NW 19:01:07 67° NNW
Cosmos 1241 Rocket 4.4 18:59:54 10° NNW 19:06:34 83° ENE 19:09:19 38° SE
Timation 1 Rocket 4.3 19:02:32 10° S 19:07:54 60° SE 19:07:54 60° SE
Cosmos 2278 Rocket 3.0 19:05:29 10° SW 19:10:54 47° WNW 19:13:52 25° N
Tiangong 1 4.2 19:09:53 10° SW 19:10:03 11° SW 19:10:03 11° SW
Meteor 1-13 Rocket 4.3 19:07:18 10° SSW 19:12:53 74° W 19:15:31 33° N
Cosmos 2239 Rocket 4.3 19:11:47 10° N 19:18:02 82° E 19:24:12 10° S
Cosmos 1821 Rocket 4.3 19:19:44 10° N 19:30:13 20° S 19:31:57 10° S
Cosmos 2082 Rocket 3.8 19:32:23 10° NNW 19:34:39 25° NNW 19:34:39 25° NNW
ATLAS 3B CENTAUR R/B 3.8 19:49:07 10° WSW 19:59:39 38° SSW 19:59:39 38° SSW
CZ-3B DEB 4.3 19:57:13 10° WNW 20:02:39 34° N 20:03:16 33° N
FALCON 9 R/B 4.0 20:22:19 10° W 20:31:06 39° WSW 20:31:06 39° WSW
